N100MB KAKO-KAPA

Flight info

Callsign N100MB
Flight time N/A
Altitude 8500
Route SMTHR
Aircraft C172/L-SFGR/S

Departure

Time 2026-04-21 00:53
Airport Colorado Plains Regional Airport (KAKO)

Arrival

Time N/A
Airport Centennial Airport (KAPA)
Time Latitude Longitude Altitude Speed Heading
2026-04-21 00:50 40.17166 -103.21035 4661 ft 0 kts 358°
2026-04-21 00:50 40.17169 -103.21035 4661 ft 3 kts 354°
2026-04-21 00:51 40.17136 -103.21083 4660 ft 13 kts 213°
2026-04-21 00:51 40.17116 -103.21172 4661 ft 18 kts 298°
2026-04-21 00:51 40.17239 -103.21455 4668 ft 52 kts 300°
2026-04-21 00:51 40.17461 -103.21960 4694 ft 71 kts 300°
2026-04-21 00:52 40.17711 -103.22575 4767 ft 78 kts 295°
2026-04-21 00:52 40.17933 -103.23229 4888 ft 81 kts 295°
2026-04-21 00:52 40.18208 -103.23880 5028 ft 82 kts 296°
2026-04-21 00:52 40.18478 -103.24533 5191 ft 81 kts 286°
2026-04-21 00:53 40.18419 -103.25282 5312 ft 83 kts 254°
2026-04-21 00:53 40.18182 -103.25957 5479 ft 84 kts 233°
2026-04-21 00:53 40.17735 -103.26431 5679 ft 80 kts 229°
2026-04-21 00:53 40.17321 -103.26926 5750 ft 89 kts 223°
2026-04-21 00:54 40.16827 -103.27492 5815 ft 95 kts 221°
2026-04-21 00:54 40.16378 -103.27999 6044 ft 81 kts 224°
2026-04-21 00:54 40.15946 -103.28473 6147 ft 82 kts 223°
2026-04-21 00:54 40.15498 -103.28969 6243 ft 85 kts 222°
2026-04-21 00:55 40.15051 -103.29473 6383 ft 85 kts 222°
2026-04-21 00:55 40.14606 -103.29971 6514 ft 84 kts 221°
2026-04-21 00:55 40.14159 -103.30462 6601 ft 85 kts 221°
2026-04-21 00:55 40.13594 -103.30717 6686 ft 87 kts 199°
2026-04-21 00:56 40.13016 -103.30984 6767 ft 89 kts 212°
2026-04-21 00:56 40.12659 -103.31607 6871 ft 87 kts 235°
2026-04-21 00:56 40.12322 -103.32267 6975 ft 88 kts 241°
2026-04-21 00:56 40.12000 -103.32951 7072 ft 89 kts 242°
2026-04-21 00:57 40.11689 -103.33637 7196 ft 87 kts 243°
2026-04-21 00:57 40.11384 -103.34321 7287 ft 88 kts 243°
2026-04-21 00:57 40.11082 -103.35008 7390 ft 87 kts 243°
2026-04-21 00:57 40.10783 -103.35691 7458 ft 88 kts 243°
2026-04-21 00:58 40.10476 -103.36394 7550 ft 89 kts 243°
2026-04-21 00:58 40.10172 -103.37094 7637 ft 89 kts 244°
2026-04-21 00:58 40.09869 -103.37788 7724 ft 89 kts 243°
2026-04-21 00:58 40.09564 -103.38491 7831 ft 89 kts 243°
2026-04-21 00:59 40.09260 -103.39191 7931 ft 89 kts 244°
2026-04-21 00:59 40.08954 -103.39894 8020 ft 89 kts 243°
2026-04-21 00:59 40.08648 -103.40598 8112 ft 89 kts 244°
2026-04-21 00:59 40.08343 -103.41300 8205 ft 89 kts 244°
2026-04-21 01:00 40.08035 -103.42007 8289 ft 89 kts 244°
2026-04-21 01:00 40.07727 -103.42712 8310 ft 89 kts 245°
2026-04-21 01:00 40.07420 -103.43417 8405 ft 89 kts 245°
2026-04-21 01:00 40.07106 -103.44142 8446 ft 96 kts 244°
2026-04-21 01:01 40.06764 -103.44933 8449 ft 105 kts 244°
2026-04-21 01:01 40.06393 -103.45788 8448 ft 111 kts 243°
2026-04-21 01:01 40.06006 -103.46676 8447 ft 114 kts 243°
2026-04-21 01:01 40.05609 -103.47587 8448 ft 116 kts 244°
2026-04-21 01:02 40.05208 -103.48507 8446 ft 117 kts 243°
2026-04-21 01:02 40.04803 -103.49436 8449 ft 118 kts 243°
2026-04-21 01:02 40.04393 -103.50375 8437 ft 120 kts 243°
2026-04-21 01:02 40.03977 -103.51325 8438 ft 120 kts 243°
2026-04-21 01:03 40.03562 -103.52276 8438 ft 121 kts 243°
2026-04-21 01:03 40.03145 -103.53230 8438 ft 121 kts 243°
2026-04-21 01:03 40.02732 -103.54175 8439 ft 122 kts 243°
2026-04-21 01:03 40.02314 -103.55133 8440 ft 122 kts 243°
2026-04-21 01:04 40.01893 -103.56097 8439 ft 122 kts 243°
2026-04-21 01:04 40.01471 -103.57062 8435 ft 123 kts 243°
2026-04-21 01:04 40.01042 -103.58042 8408 ft 124 kts 243°
2026-04-21 01:04 40.00615 -103.59017 8408 ft 123 kts 243°
2026-04-21 01:05 40.00191 -103.59986 8406 ft 123 kts 243°
2026-04-21 01:05 39.99767 -103.60953 8406 ft 123 kts 243°
2026-04-21 01:05 39.99345 -103.61918 8404 ft 123 kts 243°
2026-04-21 01:05 39.98923 -103.62881 8404 ft 123 kts 243°
2026-04-21 01:06 39.98499 -103.63846 8407 ft 122 kts 243°
2026-04-21 01:06 39.98077 -103.64809 8402 ft 122 kts 243°
2026-04-21 01:06 39.97660 -103.65759 8401 ft 122 kts 243°
2026-04-21 01:06 39.97232 -103.66736 8401 ft 122 kts 243°
2026-04-21 01:07 39.96815 -103.67689 8400 ft 123 kts 243°
2026-04-21 01:07 39.96388 -103.68662 8368 ft 125 kts 243°
2026-04-21 01:07 39.95957 -103.69642 8370 ft 124 kts 243°
2026-04-21 01:07 39.95529 -103.70616 8362 ft 123 kts 243°
2026-04-21 01:08 39.95102 -103.71588 8365 ft 123 kts 243°
2026-04-21 01:08 39.94676 -103.72556 8371 ft 123 kts 243°
2026-04-21 01:08 39.94251 -103.73520 8369 ft 123 kts 243°
2026-04-21 01:08 39.93826 -103.74488 8371 ft 123 kts 243°
2026-04-21 01:09 39.93406 -103.75443 8363 ft 123 kts 243°
2026-04-21 01:09 39.92981 -103.76411 8364 ft 123 kts 243°
2026-04-21 01:09 39.92556 -103.77377 8353 ft 123 kts 242°
2026-04-21 01:09 39.92131 -103.78341 8366 ft 123 kts 243°
2026-04-21 01:10 39.91707 -103.79304 8357 ft 123 kts 243°
2026-04-21 01:10 39.91280 -103.80271 8363 ft 123 kts 243°
2026-04-21 01:10 39.90855 -103.81238 8360 ft 123 kts 243°
2026-04-21 01:10 39.90428 -103.82206 8366 ft 123 kts 243°
2026-04-21 01:11 39.90003 -103.83169 8361 ft 123 kts 243°
2026-04-21 01:11 39.89578 -103.84133 8368 ft 123 kts 243°
2026-04-21 01:11 39.89153 -103.85096 8368 ft 123 kts 243°
2026-04-21 01:11 39.88727 -103.86061 8359 ft 123 kts 243°
2026-04-21 01:12 39.88299 -103.87029 8367 ft 124 kts 242°
2026-04-21 01:12 39.87869 -103.88004 8364 ft 124 kts 244°
2026-04-21 01:12 39.87441 -103.88971 8360 ft 123 kts 243°
2026-04-21 01:12 39.87013 -103.89938 8359 ft 123 kts 244°
2026-04-21 01:13 39.86587 -103.90903 8359 ft 123 kts 243°
2026-04-21 01:13 39.86159 -103.91869 8360 ft 123 kts 243°
2026-04-21 01:13 39.85731 -103.92839 8356 ft 124 kts 243°
2026-04-21 01:13 39.85302 -103.93807 8363 ft 124 kts 242°
2026-04-21 01:14 39.84877 -103.94768 8356 ft 124 kts 243°
2026-04-21 01:14 39.84446 -103.95740 8353 ft 123 kts 244°
2026-04-21 01:14 39.84018 -103.96706 8354 ft 123 kts 242°
2026-04-21 01:14 39.83590 -103.97672 8360 ft 124 kts 244°
2026-04-21 01:15 39.83159 -103.98646 8361 ft 124 kts 244°
2026-04-21 01:15 39.82727 -103.99620 8360 ft 124 kts 243°
2026-04-21 01:15 39.82296 -104.00590 8356 ft 123 kts 243°
2026-04-21 01:15 39.81868 -104.01556 8354 ft 123 kts 242°
2026-04-21 01:16 39.81439 -104.02522 8356 ft 124 kts 243°
2026-04-21 01:16 39.81008 -104.03493 8355 ft 124 kts 243°
2026-04-21 01:16 39.80575 -104.04468 8357 ft 125 kts 242°
2026-04-21 01:16 39.80140 -104.05451 8289 ft 130 kts 242°
2026-04-21 01:17 39.79667 -104.06522 8030 ft 141 kts 242°
2026-04-21 01:17 39.79175 -104.07630 7844 ft 141 kts 242°
2026-04-21 01:17 39.78683 -104.08735 7667 ft 141 kts 241°
2026-04-21 01:17 39.78190 -104.09842 7479 ft 142 kts 241°
2026-04-21 01:18 39.77694 -104.10957 7297 ft 142 kts 240°
2026-04-21 01:18 39.77198 -104.12073 7130 ft 142 kts 239°
2026-04-21 01:18 39.76872 -104.12804 7019 ft 141 kts 239°
2026-04-21 01:18 39.76210 -104.14288 6798 ft 140 kts 240°
2026-04-21 01:19 39.75886 -104.15015 6694 ft 141 kts 239°
2026-04-21 01:19 39.75396 -104.16114 6547 ft 140 kts 239°
2026-04-21 01:19 39.74909 -104.17206 6423 ft 139 kts 239°
2026-04-21 01:19 39.74296 -104.18577 6411 ft 127 kts 238°
2026-04-21 01:20 39.73862 -104.19547 6409 ft 122 kts 238°
2026-04-21 01:20 39.73581 -104.20174 6412 ft 121 kts 238°
2026-04-21 01:20 39.73163 -104.21109 6422 ft 119 kts 238°
2026-04-21 01:20 39.72742 -104.22049 6434 ft 122 kts 237°
2026-04-21 01:21 39.72316 -104.23004 6433 ft 122 kts 238°
2026-04-21 01:21 39.71890 -104.23955 6432 ft 122 kts 238°
2026-04-21 01:21 39.71465 -104.24907 6442 ft 121 kts 238°
2026-04-21 01:21 39.71042 -104.25853 6451 ft 121 kts 238°
2026-04-21 01:22 39.70614 -104.26812 6445 ft 123 kts 237°
2026-04-21 01:22 39.70182 -104.27777 6448 ft 125 kts 238°
2026-04-21 01:22 39.69877 -104.28841 6460 ft 128 kts 252°
2026-04-21 01:22 39.69632 -104.29942 6462 ft 125 kts 252°
2026-04-21 01:23 39.69387 -104.31032 6463 ft 126 kts 251°